This is the latest recevied weather packets stored in our database for station/object SV2RCS-13. If no packets are shown the sender has not sent any weather packets the latest 10 day(s).
| Time | Temp. | Humidity | Pressure | Rain* | Wind** | Luminosity | Snow |
|---|---|---|---|---|---|---|---|
| 1777669619 | 8.89° C | 54% | 1022.1 hPa | - | - | - | - |
| 1777669024 | 8.89° C | 60% | 1022.3 hPa | - | - | - | - |
| 1777668418 | 8.89° C | 59% | 1022.1 hPa | - | - | - | - |
| 1777667818 | 8.89° C | 59% | 1022.2 hPa | - | - | - | - |
| 1777667219 | 8.89° C | 58% | 1022.1 hPa | - | - | - | - |
| 1777666618 | 8.89° C | 58% | 1022.1 hPa | - | - | - | - |
| 1777666018 | 8.89° C | 58% | 1022 hPa | - | - | - | - |
| 1777665419 | 8.89° C | 58% | 1022.1 hPa | - | - | - | - |
| 1777664818 | 8.89° C | 59% | 1022 hPa | - | - | - | - |
| 1777664218 | 8.89° C | 58% | 1022 hPa | - | - | - | - |
| 1777663618 | 9.44° C | 57% | 1021.9 hPa | - | - | - | - |
| 1777663018 | 8.89° C | 56% | 1021.9 hPa | - | - | - | - |
| 1777662418 | 8.89° C | 55% | 1021.8 hPa | - | - | - | - |
| 1777661818 | 8.89° C | 54% | 1021.7 hPa | - | - | - | - |
| 1777661219 | 8.89° C | 53% | 1021.5 hPa | - | - | - | - |
| 1777660619 | 8.89° C | 52% | 1021.4 hPa | - | - | - | - |
| 1777660018 | 8.89° C | 51% | 1021.2 hPa | - | - | - | - |
| 1777659418 | 8.89° C | 48% | 1021.1 hPa | - | - | - | - |
| 1777658818 | 8.89° C | 47% | 1021 hPa | - | - | - | - |
| 1777658218 | 8.89° C | 47% | 1021 hPa | - | - | - | - |
| 1777657619 | 8.89° C | 47% | 1020.9 hPa | - | - | - | - |
| 1777657018 | 8.89° C | 48% | 1020.7 hPa | - | - | - | - |
| 1777656418 | 8.89° C | 49% | 1020.6 hPa | - | - | - | - |
| 1777655818 | 8.89° C | 49% | 1020.7 hPa | - | - | - | - |
| 1777655218 | 9.44° C | 51% | 1020.5 hPa | - | - | - | - |
* Rain since midnight (hover to see other rain measurements)
** Current wind speed in m/s (hover to see current wind gust speed)